Weather in Makati City

Philippines     14°34′07″N   121°01′41″E
temp.,
°C
wind,
m/s
gust,
m/s
humid.,
%
clouds,
%
prec.,
mm/h
press.,
hPa
HPBL,
m
9 may, sun
sun923:00+29e3371100 0.4 1011412
02:00+28ese1273100 0.4 1009347
05:00+28ese237696 0.0 1009397
08:00+29ese3468100 0.0 1010621
11:00+33se3552100 0.0 1009915
14:00+34se6746100 0.0 1006744
17:00+33se795155 0.0 1006553
20:00+30se576911 0.1 1009495
10 may, mon
mon1023:00+29e45735 0.3 1010444
02:00+28e34747 0.3 1008323
05:00+28ese34756 0.0 1009452
08:00+29e34667 0.0 1010680
11:00+33se46535 0.0 10091095
14:00+34se884810 0.0 1006835
17:00+33se8105455 0.0 1006631
20:00+30se79704 0.1 1009565
11 may, tue
tue1123:00+29e45715 0.5 1010481
02:00+28e2374100 1.1 1008346
05:00+28e347539 0.4 1009406
08:00+29e346722 0.4 1010678
11:00+33se465332 0.0 10091071
14:00+34ese894864 0.0 1006977
17:00+32se9105413 0.0 1006725
20:00+30ese811695 0.0 1008555
12 may, wed
wed1223:00+28ese68735 0.0 1009545
02:00+28e46755 0.0 1008431
05:00+27e457627 0.0 1008400
08:00+29e35675 0.0 1010714
11:00+33se57535 0.0 10081084
14:00+34ese89455 0.0 10051000
17:00+33ese894859 0.0 1005695
20:00+30ese710689 0.0 1008600
13 may, thu
thu1323:00+29ese687290 0.0 1009576
02:00+28e457463 0.0 1008451
05:00+28e35755 0.0 1009432
08:00+29e35657 0.0 1009747
11:00+33se465325 0.0 10081117
14:00+34se9104810 0.0 10051079
17:00+33ese9105086 0.0 1005780
20:00+30ese7106792 0.0 1007589